| time (UTC) | temp F | wind direction | speed knots | gust knots | rain 1hr in | rain 24hr in | rain mn in | humidity % | barometer mb |
| 20260505150604 | 35 | 9 | 0.0 | 0.0 | 0.16 | 0.55 | 0.55 | 89 | 1010.7 |
| 20260505140104 | 35 | 9 | 0.0 | 1.7 | 0.02 | 0.39 | 0.39 | 90 | 1010.8 |
| 20260505130104 | 34 | 10 | 0.0 | 1.7 | 0.13 | 0.37 | 0.37 | 89 | 1010.4 |
| 20260505123604 | 35 | 9 | 0.0 | 0.0 | 0.26 | 0.35 | 0.35 | 88 | 1010.2 |
| 20260505123105 | 35 | 9 | 0.0 | 0.9 | 0.26 | 0.34 | 0.34 | 88 | 1010.1 |
| 20260505121604 | 35 | 9 | 0.0 | 0.0 | 0.29 | 0.31 | 0.31 | 88 | 1010.0 |
| 20260505121105 | 36 | 9 | 0.9 | 1.7 | 0.28 | 0.29 | 0.29 | 88 | 1010.0 |
| 20260505120105 | 36 | 9 | 0.9 | 4.3 | 0.24 | 0.24 | 0.24 | 87 | 1009.8 |
| 20260505114604 | 37 | 9 | 1.7 | 2.6 | 0.14 | 0.14 | 0.14 | 89 | 1009.6 |
| 20260505114104 | 38 | 10 | 1.7 | 4.3 | 0.11 | 0.11 | 0.11 | 88 | 1009.6 |
| 20260505113605 | 38 | 10 | 1.7 | 2.6 | 0.09 | 0.09 | 0.09 | 87 | 1009.6 |
| 20260505113105 | 38 | 10 | 1.7 | 7.8 | 0.08 | 0.08 | 0.08 | 87 | 1009.6 |
| 20260505111604 | 39 | 9 | 4.3 | 7.8 | 0.02 | 0.02 | 0.02 | 87 | 1009.5 |
| 20260505111104 | 39 | 9 | 2.6 | 5.2 | 0.01 | 0.01 | 0.01 | 87 | 1009.5 |
| 20260505110604 | 39 | 9 | 4.3 | 8.7 | 0.00 | 0.00 | 0.00 | 86 | 1009.5 |
| 20260505110104 | 39 | 9 | 4.3 | 8.7 | 0.00 | 0.00 | 0.00 | 85 | 1009.5 |
| 20260505101605 | 39 | 9 | 4.3 | 8.7 | 0.00 | 0.00 | 0.00 | 86 | 1009.4 |
| 20260505101104 | 39 | 9 | 4.3 | 8.7 | 0.00 | 0.00 | 0.00 | 86 | 1009.5 |
| 20260505100105 | 39 | 10 | 7.8 | 11.3 | 0.00 | 0.00 | 0.00 | 87 | 1009.6 |
| 20260505094605 | 40 | 10 | 5.2 | 8.7 | 0.00 | 0.00 | 0.00 | 82 | 1009.6 |
| 20260505094104 | 40 | 10 | 5.2 | 8.7 | 0.00 | 0.00 | 0.00 | 79 | 1009.6 |
| 20260505093605 | 41 | 11 | 4.3 | 6.1 | 0.00 | 0.00 | 0.00 | 77 | 1009.5 |
| 20260505093105 | 41 | 11 | 0.9 | 4.3 | 0.00 | 0.00 | 0.00 | 75 | 1009.5 |
| 20260505091604 | 42 | 9 | 0.0 | 0.0 | 0.00 | 0.00 | 0.00 | 75 | 1009.6 |
| 20260505091105 | 42 | 9 | 0.9 | 1.7 | 0.00 | 0.00 | 0.00 | 74 | 1009.7 |
| 20260505090604 | 42 | 9 | 0.0 | 1.7 | 0.00 | 0.00 | 0.00 | 73 | 1009.6 |
| 20260505090104 | 42 | 9 | 0.0 | 1.7 | 0.00 | 0.00 | 0.00 | 73 | 1009.7 |
| 20260505083604 | 43 | 9 | 0.0 | 0.0 | 0.00 | 0.00 | 0.00 | 70 | 1009.9 |
| 20260505083104 | 43 | 9 | 0.0 | 1.7 | 0.00 | 0.00 | 0.00 | 69 | 1009.8 |
| 20260505081605 | 42 | 5 | 0.0 | 0.0 | 0.00 | 0.00 | 0.00 | 70 | 1009.7 |
| 20260505080104 | 42 | 5 | 0.0 | 0.0 | 0.00 | 0.00 | 0.00 | 70 | 1009.7 |
| 20260505074604 | 42 | 5 | 0.0 | 0.0 | 0.00 | 0.00 | 0.00 | 70 | 1009.8 |
| 20260505074104 | 41 | 5 | 0.0 | 0.0 | 0.00 | 0.00 | 0.00 | 71 | 1009.8 |
| 20260505073604 | 41 | 5 | 0.0 | 0.0 | 0.00 | 0.00 | 0.00 | 71 | 1009.9 |
| 20260505073104 | 42 | 5 | 0.0 | 0.9 | 0.00 | 0.00 | 0.00 | 70 | 1010.0 |
| 20260505071605 | 42 | 5 | 0.0 | 1.7 | 0.00 | 0.00 | 0.00 | 70 | 1010.0 |
| 20260505071104 | 42 | 5 | 0.9 | 2.6 | 0.00 | 0.00 | 0.00 | 69 | 1010.0 |
| 20260505070604 | 42 | 6 | 1.7 | 1.7 | 0.00 | 0.00 | 0.00 | 69 | 1010.1 |
| 20260505070104 | 41 | 9 | 0.9 | 1.7 | 0.00 | 0.00 | 0.00 | 69 | 1010.0 |
| 20260505064604 | 41 | 9 | 0.0 | 0.0 | 0.00 | 0.00 | 0.00 | 70 | 1010.0 |
| 20260505063604 | 41 | 9 | 0.0 | 0.9 | 0.00 | 0.00 | 0.00 | 70 | 1010.1 |
| 20260505063104 | 41 | 9 | 0.0 | 2.6 | 0.00 | 0.00 | 0.00 | 70 | 1010.0 |
| 20260505061605 | 41 | 13 | 1.7 | 2.6 | 0.00 | 0.00 | 0.00 | 70 | 1010.1 |
| 20260505061107 | 41 | 14 | 0.9 | 6.1 | 0.00 | 0.00 | 0.00 | 69 | 1010.0 |
| 20260505060604 | 42 | 14 | 4.3 | 7.0 | 0.00 | 0.00 | 0.00 | 67 | 1010.0 |
| 20260505060104 | 43 | 9 | 0.9 | 2.6 | 0.00 | 0.00 | 0.00 | 66 | 1009.7 |
| 20260505054604 | 43 | 9 | 1.7 | 4.3 | 0.00 | 0.00 | 0.00 | 65 | 1009.7 |
| 20260505054104 | 44 | 11 | 1.7 | 4.3 | 0.00 | 0.00 | 0.00 | 64 | 1009.6 |
| 20260505053604 | 44 | 9 | 0.0 | 2.6 | 0.00 | 0.00 | 0.00 | 63 | 1009.6 |
| 20260505051104 | 44 | 10 | 4.3 | 10.4 | 0.00 | 0.00 | 0.00 | 62 | 1009.5 |
| 20260505050104 | 44 | 10 | 6.1 | 10.4 | 0.00 | 0.00 | 0.00 | 62 | 1009.4 |
| 20260505041105 | 44 | 10 | 4.3 | 7.0 | 0.00 | 0.00 | 0.00 | 64 | 1009.3 |
| 20260505040604 | 44 | 9 | 0.9 | 2.6 | 0.00 | 0.00 | 0.00 | 65 | 1009.3 |
| 20260505040105 | 45 | 9 | 0.9 | 5.2 | 0.00 | 0.00 | 0.00 | 64 | 1009.2 |
| 20260505034604 | 45 | 9 | 0.9 | 1.7 | 0.00 | 0.00 | 0.00 | 64 | 1009.2 |
| 20260505034104 | 45 | 9 | 0.9 | 2.6 | 0.00 | 0.00 | 0.00 | 63 | 1009.1 |
| 20260505033104 | 46 | 9 | 1.7 | 2.6 | 0.00 | 0.00 | 0.00 | 63 | 1009.1 |
| 20260505031604 | 46 | 10 | 0.9 | 2.6 | 0.00 | 0.00 | 0.00 | 63 | 1009.0 |
| 20260505031104 | 46 | 12 | 0.9 | 2.6 | 0.00 | 0.00 | 0.00 | 62 | 1009.0 |
| 20260505030604 | 47 | 9 | 1.7 | 2.6 | 0.00 | 0.00 | 0.00 | 60 | 1008.9 |
| 20260505030104 | 47 | 5 | 0.9 | 2.6 | 0.00 | 0.00 | 0.00 | 59 | 1008.9 |
| 20260505024604 | 48 | 15 | 1.7 | 2.6 | 0.00 | 0.00 | 0.00 | 57 | 1008.7 |
| 20260505024104 | 48 | 15 | 0.9 | 2.6 | 0.00 | 0.00 | 0.00 | 57 | 1008.7 |
| 20260505021604 | 49 | 10 | 1.7 | 4.3 | 0.00 | 0.00 | 0.00 | 55 | 1008.3 |
| 20260505021104 | 50 | 9 | 0.0 | 1.7 | 0.00 | 0.00 | 0.00 | 57 | 1008.3 |
| 20260505020604 | 50 | 9 | 1.7 | 4.3 | 0.00 | 0.00 | 0.00 | 56 | 1008.1 |
| 20260505014604 | 51 | 10 | 1.7 | 2.6 | 0.00 | 0.00 | 0.00 | 53 | 1008.0 |
| 20260505014104 | 52 | 10 | 0.9 | 2.6 | 0.00 | 0.00 | 0.00 | 52 | 1008.1 |
| 20260505013604 | 52 | 9 | 0.9 | 1.7 | 0.00 | 0.00 | 0.00 | 51 | 1008.1 |
| 20260505013104 | 52 | 5 | 0.0 | 1.7 | 0.00 | 0.00 | 0.00 | 51 | 1008.1 |
| 20260505010604 | 52 | 13 | 1.7 | 2.6 | 0.00 | 0.00 | 0.00 | 49 | 1008.3 |
| 20260505004604 | 52 | 14 | 2.6 | 4.3 | 0.00 | 0.00 | 0.00 | 49 | 1008.6 |
| 20260505004104 | 52 | 15 | 0.9 | 4.3 | 0.00 | 0.00 | 0.00 | 49 | 1008.6 |
| 20260505003604 | 52 | 14 | 1.7 | 6.1 | 0.00 | 0.00 | 0.00 | 49 | 1008.6 |
| 20260505003104 | 52 | 13 | 0.9 | 5.2 | 0.00 | 0.00 | 0.00 | 49 | 1008.7 |
| 20260505001604 | 52 | 13 | 0.9 | 2.6 | 0.00 | 0.00 | 0.00 | 51 | 1008.8 |
| 20260505001104 | 52 | 14 | 2.6 | 5.2 | 0.00 | 0.00 | 0.00 | 49 | 1008.8 |
| 20260505000104 | 52 | 13 | 2.6 | 6.1 | 0.00 | 0.00 | 0.00 | 50 | 1009.0 |
| 20260504234104 | 52 | 14 | 1.7 | 5.2 | 0.00 | 0.00 | 0.00 | 52 | 1009.1 |
| 20260504233604 | 52 | 13 | 2.6 | 7.8 | 0.00 | 0.00 | 0.00 | 52 | 1009.0 |
| 20260504233104 | 52 | 14 | 0.9 | 8.7 | 0.00 | 0.00 | 0.00 | 52 | 1008.9 |
| 20260504231604 | 52 | 13 | 3.5 | 7.8 | 0.00 | 0.00 | 0.00 | 50 | 1008.8 |
| 20260504231104 | 53 | 13 | 1.7 | 10.4 | 0.00 | 0.00 | 0.00 | 50 | 1008.6 |
| 20260504230104 | 54 | 12 | 3.5 | 10.4 | 0.00 | 0.00 | 0.00 | 44 | 1008.4 |
| 20260504224604 | 55 | 11 | 2.6 | 7.8 | 0.00 | 0.00 | 0.00 | 39 | 1008.1 |
| 20260504224104 | 55 | 13 | 2.6 | 4.3 | 0.00 | 0.00 | 0.00 | 41 | 1008.3 |
| 20260504223604 | 55 | 13 | 1.7 | 2.6 | 0.00 | 0.00 | 0.00 | 41 | 1008.0 |
| 20260504223105 | 55 | 11 | 0.0 | 6.1 | 0.00 | 0.00 | 0.00 | 40 | 1007.9 |
| 20260504221605 | 56 | 10 | 5.2 | 7.0 | 0.00 | 0.00 | 0.00 | 41 | 1007.8 |
| 20260504221106 | 55 | 9 | 4.3 | 10.4 | 0.00 | 0.00 | 0.00 | 40 | 1007.8 |
| 20260504220105 | 55 | 11 | 2.6 | 8.7 | 0.00 | 0.00 | 0.00 | 40 | 1008.0 |
| 20260504214605 | 55 | 11 | 6.1 | 11.3 | 0.00 | 0.00 | 0.00 | 41 | 1008.1 |
| 20260504214105 | 55 | 11 | 4.3 | 8.7 | 0.00 | 0.00 | 0.00 | 43 | 1008.1 |
| 20260504213605 | 54 | 11 | 4.3 | 8.7 | 0.00 | 0.00 | 0.00 | 43 | 1008.2 |
| 20260504213105 | 54 | 9 | 4.3 | 13.9 | 0.00 | 0.00 | 0.00 | 43 | 1008.2 |
| 20260504211105 | 54 | 11 | 7.8 | 13.9 | 0.00 | 0.00 | 0.00 | 45 | 1008.3 |
| 20260504210605 | 54 | 11 | 6.1 | 12.2 | 0.00 | 0.00 | 0.00 | 45 | 1008.3 |
| 20260504210105 | 54 | 11 | 5.2 | 19.1 | 0.00 | 0.00 | 0.00 | 45 | 1008.3 |
| 20260504204604 | 58 | 11 | 11.3 | 17.4 | 0.00 | 0.00 | 0.00 | 35 | 1008.1 |
| 20260504204105 | 61 | 9 | 3.5 | 7.0 | 0.00 | 0.00 | 0.00 | 25 | 1008.1 |
| 20260504203605 | 62 | 11 | 1.7 | 7.8 | 0.00 | 0.00 | 0.00 | 26 | 1008.2 |
| 20260504201605 | 62 | 13 | 5.2 | 12.2 | 0.00 | 0.00 | 0.00 | 29 | 1008.2 |
| 20260504201105 | 61 | 12 | 7.0 | 10.4 | 0.00 | 0.00 | 0.00 | 31 | 1008.1 |
| 20260504200604 | 61 | 13 | 3.5 | 8.7 | 0.00 | 0.00 | 0.00 | 35 | 1008.3 |
| 20260504200105 | 61 | 14 | 4.3 | 13.0 | 0.00 | 0.00 | 0.00 | 35 | 1008.4 |
| 20260504194605 | 59 | 12 | 5.2 | 10.4 | 0.00 | 0.00 | 0.00 | 30 | 1008.5 |
| 20260504193604 | 61 | 14 | 5.2 | 13.0 | 0.00 | 0.00 | 0.00 | 28 | 1008.5 |
| 20260504193104 | 62 | 13 | 2.6 | 11.3 | 0.00 | 0.00 | 0.00 | 25 | 1008.3 |
| 20260504191605 | 61 | 10 | 1.7 | 5.2 | 0.00 | 0.00 | 0.00 | 29 | 1008.4 |
| 20260504191105 | 60 | 13 | 1.7 | 7.8 | 0.00 | 0.00 | 0.00 | 31 | 1008.5 |
| 20260504190605 | 59 | 9 | 4.3 | 7.8 | 0.00 | 0.00 | 0.00 | 30 | 1008.5 |
| 20260504190105 | 58 | 10 | 1.7 | 10.4 | 0.00 | 0.00 | 0.00 | 31 | 1008.7 |
| 20260504184605 | 60 | 13 | 4.3 | 11.3 | 0.00 | 0.00 | 0.00 | 30 | 1008.8 |
| 20260504181604 | 62 | 341 | 4.3 | 11.3 | 0.00 | 0.00 | 0.00 | 28 | 1008.7 |
| 20260504181104 | 63 | 279 | 4.3 | 10.4 | 0.00 | 0.00 | 0.00 | 28 | 1008.8 |
| 20260504180604 | 62 | 191 | 4.3 | 8.7 | 0.00 | 0.00 | 0.00 | 28 | 1008.8 |
| 20260504180105 | 62 | 12 | 3.5 | 8.7 | 0.00 | 0.00 | 0.00 | 28 | 1008.8 |
| 20260504174605 | 62 | 13 | 5.2 | 10.4 | 0.00 | 0.00 | 0.00 | 29 | 1008.9 |
| 20260504174105 | 61 | 16 | 2.6 | 6.1 | 0.00 | 0.00 | 0.00 | 29 | 1009.0 |
| 20260504173605 | 62 | 13 | 2.6 | 8.7 | 0.00 | 0.00 | 0.00 | 30 | 1009.2 |
| 20260504173105 | 62 | 14 | 5.2 | 8.7 | 0.00 | 0.00 | 0.00 | 29 | 1009.2 |
| 20260504171605 | 61 | 13 | 2.6 | 7.0 | 0.00 | 0.00 | 0.00 | 30 | 1009.4 |
| 20260504171105 | 60 | 14 | 4.3 | 7.8 | 0.00 | 0.00 | 0.00 | 31 | 1009.4 |
| 20260504170104 | 59 | 18 | 2.6 | 6.1 | 0.00 | 0.00 | 0.00 | 34 | 1009.6 |
| 20260504160105 | 57 | 14 | 2.6 | 6.1 | 0.00 | 0.00 | 0.00 | 37 | 1009.9 |
| 20260504151105 | 52 | 12 | 2.6 | 4.3 | 0.00 | 0.00 | 0.00 | 40 | 1010.3 |